Total_Precipitation_Accumulation
0.58 0.63 0.66 0.64 0.60 0.68 0.70 0.69 0.70 0.71 0.61 0.59 0.59 0.59 0.58 0.58 0.60 0.64 0.63 0.65 0.71 0.80 0.83 0.85 0.87 0.89 0.92 0.89 0.94 0.93 0.88 0.96 0.97 0.82 0.89 0.95 0.84 0.67 0.56 0.52 0.53 0.57 0.53
0.55 0.62 0.68 0.73 0.65 0.67 0.71 0.73 0.74 0.79 0.81 0.76 0.72 0.69 0.62 0.61 0.68 0.71 0.74 0.71 0.73 0.79 0.97 1.18 1.18 1.17 1.10 1.00 1.07 1.03 0.98 1.12 1.08 0.99 1.09 1.13 1.07 0.86 0.72 0.60 0.47 0.48 0.53
0.59 0.63 0.70 0.73 0.70 0.71 0.82 0.85 0.82 0.87 0.92 0.93 0.89 0.80 0.69 0.63 0.61 0.65 0.74 0.76 0.79 0.90 1.05 1.18 1.27 1.38 1.27 1.17 1.13 1.11 1.13 1.20 1.21 1.12 1.16 1.29 1.28 1.08 0.86 0.63 0.46 0.50 0.47
0.60 0.65 0.70 0.74 0.78 0.82 0.87 0.92 0.91 0.94 0.97 1.02 1.01 0.96 0.88 0.75 0.66 0.65 0.69 0.76 0.91 1.08 1.12 1.04 1.11 1.35 1.44 1.37 1.24 1.17 1.19 1.25 1.26 1.26 1.29 1.41 1.44 1.36 1.14 0.85 0.67 0.59 0.48
0.76 0.82 0.86 0.96 1.05 1.10 1.13 1.12 1.07 1.07 1.06 1.12 1.16 1.14 1.05 0.91 0.75 0.77 0.83 0.78 0.88 0.95 0.96 0.88 0.85 0.99 1.22 1.37 1.28 1.23 1.24 1.24 1.26 1.33 1.38 1.44 1.45 1.49 1.34 1.06 0.86 0.74 0.59
0.90 1.01 1.08 1.22 1.33 1.42 1.52 1.59 1.51 1.43 1.46 1.52 1.47 1.38 1.26 0.96 0.89 0.84 0.82 0.85 0.88 0.89 0.87 0.84 0.74 0.65 0.72 0.92 1.11 1.24 1.32 1.26 1.21 1.29 1.40 1.42 1.41 1.40 1.38 1.22 1.00 0.82 0.68
1.02 1.20 1.32 1.45 1.61 1.74 1.81 1.84 1.80 1.82 1.86 1.87 1.78 1.60 1.45 1.31 1.11 0.92 0.84 0.82 0.82 0.82 0.85 0.83 0.66 0.56 0.63 0.66 0.80 0.92 1.04 1.09 1.09 1.16 1.24 1.33 1.43 1.53 1.53 1.35 1.16 1.00 0.79
1.23 1.40 1.57 1.60 1.64 1.73 1.77 1.72 1.74 1.85 1.90 1.86 1.77 1.64 1.56 1.46 1.26 1.01 0.90 0.77 0.81 0.83 0.84 0.84 0.79 0.73 0.69 0.73 0.76 0.76 0.78 0.84 0.88 0.91 1.01 1.18 1.37 1.54 1.67 1.56 1.41 1.15 0.96
1.24 1.33 1.41 1.52 1.63 1.67 1.66 1.70 1.75 1.78 1.69 1.58 1.52 1.51 1.48 1.49 1.33 1.09 0.99 0.91 0.97 0.97 0.94 0.93 0.91 0.85 0.84 0.71 0.70 0.73 0.73 0.77 0.78 0.84 0.88 1.03 1.28 1.47 1.54 1.56 1.44 1.24 1.02
1.24 1.27 1.30 1.42 1.53 1.61 1.64 1.67 1.65 1.60 1.55 1.50 1.44 1.45 1.45 1.45 1.36 1.06 0.98 0.95 1.04 1.06 1.08 1.06 0.97 0.86 0.81 0.68 0.66 0.73 0.73 0.73 0.78 0.80 0.83 0.84 0.92 1.19 1.45 1.31 1.24 1.18 1.04
1.09 1.17 1.25 1.39 1.49 1.51 1.59 1.60 1.59 1.57 1.58 1.57 1.50 1.42 1.40 1.39 1.35 1.06 0.93 0.89 1.01 1.14 1.13 1.09 1.04 0.91 0.71 0.63 0.62 0.68 0.68 0.72 0.83 0.86 0.84 0.86 0.92 1.03 1.20 1.22 1.14 1.07 1.00
0.89 0.95 0.98 1.07 1.19 1.26 1.38 1.40 1.43 1.41 1.37 1.35 1.33 1.27 1.23 1.25 1.18 1.05 0.85 0.76 0.84 1.00 1.09 1.10 1.11 0.94 0.69 0.58 0.48 0.45 0.43 0.42 0.55 0.67 0.74 0.76 0.79 0.88 1.00 1.13 1.16 1.12 1.00
0.74 0.74 0.76 0.81 0.96 1.12 1.19 1.18 1.21 1.22 1.20 1.17 1.16 1.14 1.12 1.09 1.02 0.81 0.66 0.55 0.59 0.74 0.90 1.00 0.93 0.78 0.64 0.51 0.43 0.38 0.36 0.35 0.45 0.55 0.62 0.65 0.67 0.74 0.97 1.24 1.38 1.40 1.30
0.76 0.77 0.78 0.81 0.90 1.14 1.28 1.21 1.16 1.15 1.12 1.11 1.07 1.08 1.11 1.13 1.08 0.87 0.66 0.52 0.54 0.66 0.75 0.78 0.78 0.77 0.74 0.69 0.58 0.48 0.40 0.41 0.46 0.54 0.64 0.74 0.83 0.91 1.02 1.17 1.35 1.40 1.38
0.64 0.62 0.63 0.70 0.82 1.01 1.16 1.17 1.05 1.02 1.01 1.03 1.00 0.98 0.94 0.92 0.88 0.76 0.63 0.61 0.68 0.76 0.77 0.84 0.86 0.92 0.95 0.94 0.88 0.78 0.71 0.68 0.63 0.63 0.76 0.89 0.94 0.98 1.02 1.12 1.26 1.30 1.20
0.67 0.62 0.62 0.64 0.74 0.92 1.12 1.18 0.99 0.82 0.80 0.79 0.74 0.71 0.66 0.59 0.55 0.55 0.52 0.51 0.57 0.62 0.63 0.79 0.91 1.00 1.08 1.10 1.10 1.02 0.93 0.85 0.78 0.80 0.86 0.95 0.99 1.01 1.03 1.14 1.25 1.26 1.13
0.68 0.63 0.61 0.60 0.63 0.75 0.98 1.20 1.23 0.96 0.75 0.66 0.55 0.45 0.41 0.36 0.37 0.42 0.47 0.44 0.43 0.44 0.46 0.62 0.78 0.91 1.03 1.08 1.10 1.04 0.98 0.93 0.91 0.93 0.98 1.02 1.06 1.07 1.08 1.10 1.19 1.23 1.15
0.62 0.60 0.55 0.51 0.52 0.61 0.81 1.09 1.27 1.23 1.07 0.82 0.55 0.38 0.34 0.30 0.32 0.42 0.48 0.45 0.43 0.39 0.39 0.50 0.63 0.77 0.92 1.06 1.12 1.09 1.06 1.05 0.98 0.96 1.04 1.06 1.10 1.13 1.11 1.07 1.11 1.19 1.17
0.55 0.53 0.50 0.49 0.49 0.54 0.71 0.97 1.18 1.25 1.20 1.08 0.79 0.47 0.34 0.32 0.35 0.45 0.47 0.49 0.50 0.46 0.44 0.49 0.55 0.67 0.84 1.02 1.12 1.17 1.18 1.12 1.01 1.00 1.03 1.08 1.09 1.13 1.11 1.05 1.10 1.20 1.21
0.45 0.41 0.34 0.35 0.40 0.44 0.55 0.78 1.03 1.17 1.11 1.06 0.89 0.54 0.32 0.30 0.40 0.55 0.61 0.67 0.66 0.58 0.54 0.55 0.58 0.67 0.83 1.01 1.11 1.16 1.21 1.15 1.09 1.07 1.05 1.10 1.12 1.13 1.12 1.08 1.08 1.15 1.12
0.38 0.33 0.24 0.23 0.31 0.38 0.44 0.63 0.87 1.05 1.01 0.93 0.81 0.50 0.31 0.35 0.49 0.61 0.74 0.78 0.77 0.71 0.67 0.63 0.63 0.69 0.81 0.95 1.04 1.08 1.14 1.13 1.08 1.07 1.06 1.09 1.13 1.14 1.19 1.19 1.13 1.14 1.15
0.32 0.31 0.27 0.28 0.34 0.37 0.42 0.59 0.81 0.96 0.92 0.88 0.78 0.55 0.39 0.45 0.56 0.66 0.72 0.71 0.69 0.63 0.61 0.66 0.68 0.73 0.80 0.87 0.95 1.05 1.10 1.11 1.10 1.08 1.09 1.11 1.15 1.15 1.19 1.21 1.17 1.14 1.15
0.25 0.26 0.26 0.28 0.32 0.31 0.41 0.59 0.75 0.82 0.80 0.76 0.66 0.54 0.51 0.55 0.57 0.61 0.65 0.66 0.65 0.62 0.62 0.67 0.74 0.77 0.83 0.86 0.90 0.98 1.02 1.01 1.01 1.02 1.08 1.11 1.13 1.13 1.14 1.14 1.11 1.12 1.09
0.25 0.28 0.29 0.31 0.33 0.40 0.50 0.62 0.68 0.67 0.66 0.64 0.61 0.60 0.62 0.63 0.59 0.58 0.62 0.65 0.68 0.70 0.70 0.69 0.71 0.71 0.74 0.77 0.80 0.82 0.86 0.83 0.80 0.83 0.89 0.97 1.01 1.03 1.05 1.08 1.09 1.09 1.08
0.22 0.26 0.31 0.37 0.40 0.46 0.54 0.63 0.65 0.63 0.58 0.55 0.56 0.59 0.60 0.57 0.59 0.62 0.67 0.70 0.71 0.69 0.65 0.65 0.66 0.65 0.63 0.62 0.62 0.64 0.67 0.62 0.55 0.59 0.67 0.81 0.89 0.93 0.94 0.99 1.04 1.06 1.08
0.18 0.21 0.26 0.32 0.36 0.40 0.50 0.59 0.58 0.53 0.48 0.48 0.52 0.58 0.60 0.60 0.64 0.67 0.69 0.73 0.75 0.72 0.70 0.67 0.62 0.61 0.60 0.60 0.58 0.59 0.54 0.45 0.41 0.44 0.48 0.61 0.76 0.84 0.88 0.94 0.97 1.05 1.06